FW0689 Weather Reports


Display with metric or nautical units.
time (UTC)temp
F
wind
direction
speed
MPH
gust
MPH
rain 1hr
in
rain 24hr
in
rain mn
in
humidity
%
barometer
mb
20260507214137 43 90 0.0 0.0 0.00 0.00 0.00 41 1023.0
20260507213223 44 90 0.0 0.0 0.00 0.00 0.00 41 1022.9
20260507212319 44 90 0.0 0.0 0.00 0.00 0.00 40 1022.9
20260507210320 45 67 0.0 0.0 0.00 0.00 0.00 39 1022.9
20260507203321 46 90 0.0 0.0 0.00 0.00 0.00 40 1022.8
20260507202323 46 90 0.0 0.0 0.00 0.00 0.00 40 1022.9
20260507201323 47 79 0.0 0.0 0.00 0.00 0.00 40 1022.7
20260507200320 47 88 0.0 0.0 0.00 0.00 0.00 40 1022.6
20260507195321 48 90 0.0 0.0 0.00 0.00 0.00 40 1022.4
20260507194323 48 88 0.0 0.0 0.00 0.00 0.00 41 1022.5
20260507193320 48 92 0.0 0.0 0.00 0.00 0.00 41 1022.4
20260507193222 48 87 0.0 0.0 0.00 0.00 0.00 41 1022.4
20260507185321 50 94 0.0 0.0 0.00 0.00 0.00 41 1022.0
20260507184320 51 90 0.0 0.0 0.00 0.00 0.00 41 1022.0
20260507183321 51 101 0.0 0.0 0.00 0.00 0.00 41 1022.0
20260507182320 52 96 0.0 0.0 0.00 0.00 0.00 42 1021.9
20260507180518 53 107 0.0 0.0 0.00 0.00 0.00 42 1021.8
20260507174619 53 93 0.0 0.0 0.00 0.00 0.00 42 1021.7
20260507173621 53 101 0.0 0.0 0.00 0.00 0.00 42 1021.7
20260507172621 54 101 0.0 0.0 0.00 0.00 0.00 42 1021.6
20260507171620 55 91 0.0 0.0 0.00 0.00 0.00 43 1021.5
20260507170719 55 82 0.0 0.0 0.00 0.00 0.00 43 1021.5
20260507165720 56 90 0.0 0.0 0.00 0.00 0.00 44 1021.3
20260507164722 56 85 0.0 0.0 0.00 0.00 0.00 44 1021.4
20260507163721 57 95 0.0 0.0 0.00 0.00 0.00 44 1021.1
20260507162721 57 80 0.0 0.0 0.00 0.00 0.00 44 1021.1
20260507161819 57 104 0.0 0.0 0.00 0.00 0.00 45 1021.1
20260507160820 58 88 0.0 0.0 0.00 0.00 0.00 44 1020.9
20260507155821 59 60 0.0 0.0 0.00 0.00 0.00 44 1020.8
20260507154919 59 80 0.0 0.0 0.00 0.00 0.00 44 1020.8
20260507153919 59 89 0.0 0.0 0.00 0.00 0.00 43 1020.8
20260507152918 60 82 0.0 0.0 0.00 0.00 0.00 42 1020.7
20260507151920 60 46 0.0 0.0 0.00 0.00 0.00 41 1020.7
20260507150921 60 44 0.0 0.0 0.00 0.00 0.00 40 1020.6
20260507145921 61 70 0.0 0.0 0.00 0.00 0.00 40 1020.6
20260507144938 61 46 0.0 0.0 0.00 0.00 0.00 42 1020.5
20260507144022 61 7 0.0 0.0 0.00 0.00 0.00 41 1020.5
20260507143119 61 29 0.0 0.0 0.00 0.00 0.00 43 1020.6
20260507142121 61 38 0.0 0.0 0.00 0.00 0.00 43 1020.6
20260507141119 60 22 0.0 0.0 0.00 0.00 0.00 43 1020.6
20260507140119 59 30 0.0 0.0 0.00 0.00 0.00 44 1020.7
20260507135219 59 360 0.0 0.0 0.00 0.00 0.00 44 1020.6
20260507134219 59 6 0.0 0.0 0.00 0.00 0.00 43 1020.6
20260507132320 60 26 0.0 0.0 0.00 0.00 0.00 43 1020.6
20260507130421 59 18 0.0 0.0 0.00 0.00 0.00 43 1020.6
20260507125421 60 52 0.0 0.0 0.00 0.00 0.00 43 1020.6
20260507124420 59 113 0.0 0.0 0.00 0.00 0.00 42 1020.4
20260507123421 60 88 0.0 0.0 0.00 0.00 0.00 41 1020.6
20260507122519 62 38 0.0 0.0 0.00 0.00 0.00 40 1020.5
20260507121520 62 11 0.0 0.0 0.00 0.00 0.00 41 1020.6
20260507120523 63 56 0.0 0.0 0.00 0.00 0.00 41 1020.6
20260507115619 62 34 0.0 0.0 0.00 0.00 0.00 43 1020.6
20260507114718 61 17 0.0 0.0 0.00 0.00 0.00 43 1020.6
20260507113722 61 59 0.0 0.0 0.00 0.00 0.00 43 1020.6
20260507113620 61 66 0.0 0.0 0.00 0.00 0.00 43 1020.6
20260507112620 61 5 0.0 0.0 0.00 0.00 0.00 44 1020.6
20260507111720 60 4 0.0 0.0 0.00 0.00 0.00 44 1020.6
20260507110722 60 93 0.0 0.0 0.00 0.00 0.00 44 1020.8
20260507105721 61 3 0.0 0.0 0.00 0.00 0.00 43 1020.6
20260507103736 59 25 0.0 0.0 0.00 0.00 0.00 43 1020.8
20260507102820 59 20 0.0 0.0 0.00 0.00 0.00 42 1020.7
20260507101821 58 19 0.0 0.0 0.00 0.00 0.00 41 1020.7
20260507100919 57 349 0.0 0.0 0.00 0.00 0.00 41 1020.6
20260507095920 57 1 0.0 0.0 0.00 0.00 0.00 41 1020.5
20260507094921 57 335 0.0 0.0 0.00 0.00 0.00 41 1020.5
20260507092920 58 43 0.0 0.0 0.00 0.00 0.00 40 1020.6
20260507091920 58 5 0.0 0.0 0.00 0.00 0.00 39 1020.3
20260507090919 57 13 0.0 0.0 0.00 0.00 0.00 39 1020.3
20260507085922 56 41 0.0 0.0 0.00 0.00 0.00 39 1020.4
20260507085020 55 64 0.0 0.0 0.00 0.00 0.00 39 1020.5
20260507084020 55 3 0.0 0.0 0.00 0.00 0.00 39 1020.4
20260507083120 55 10 0.0 0.0 0.00 0.00 0.00 39 1020.5
20260507082121 55 50 0.0 0.0 0.00 0.00 0.00 39 1020.3
20260507081219 56 40 0.0 0.0 0.00 0.00 0.00 38 1020.1
20260507080220 55 12 0.0 0.0 0.00 0.00 0.00 38 1020.1
20260507074322 54 360 0.0 0.0 0.00 0.00 0.00 38 1019.9
20260507073420 54 21 0.0 0.0 0.00 0.00 0.00 38 1019.9
20260507072421 54 83 0.0 0.0 0.00 0.00 0.00 38 1019.9
20260507071421 53 12 0.0 0.0 0.00 0.00 0.00 37 1019.9
20260507065519 51 11 0.0 0.0 0.00 0.00 0.00 38 1019.9
20260507064521 50 9 0.0 0.0 0.00 0.00 0.00 38 1019.9
20260507063522 50 16 0.0 0.0 0.00 0.00 0.00 38 1019.9
20260507061519 48 360 0.0 0.0 0.00 0.00 0.00 39 1019.6
20260507060520 47 9 0.0 0.0 0.00 0.00 0.00 39 1019.5
20260507055521 46 3 0.0 0.0 0.00 0.00 0.00 40 1019.3
20260507053520 43 360 0.0 0.0 0.00 0.00 0.00 41 1019.0
20260507051522 41 337 0.0 0.0 0.00 0.00 0.00 42 1018.8
20260507045620 40 337 0.0 0.0 0.00 0.00 0.00 43 1018.6
20260507044719 39 337 0.0 0.0 0.00 0.00 0.00 43 1018.4
20260507043722 39 315 0.0 0.0 0.00 0.00 0.00 43 1018.3
20260507042818 38 292 0.0 0.0 0.00 0.00 0.00 43 1018.2
20260507041821 37 292 0.0 0.0 0.00 0.00 0.00 43 1017.9
20260507040919 38 292 0.0 0.0 0.00 0.00 0.00 43 1017.9
20260507035921 38 292 0.0 0.0 0.00 0.00 0.00 43 1017.7
20260507034920 38 292 0.0 0.0 0.00 0.00 0.00 43 1017.7
20260507033918 38 292 0.0 0.0 0.00 0.00 0.00 43 1017.8
20260507032920 38 292 0.0 0.0 0.00 0.00 0.00 43 1017.8
20260507031922 38 292 0.0 0.0 0.00 0.00 0.00 43 1017.7
20260507030919 38 292 0.0 0.0 0.00 0.00 0.00 43 1017.7
20260507025921 38 292 0.0 0.0 0.00 0.00 0.00 43 1017.6
20260507024921 38 315 0.0 0.0 0.00 0.00 0.00 43 1017.7
20260507021920 39 315 0.0 0.0 0.00 0.00 0.00 43 1017.4
20260507021019 39 315 0.0 0.0 0.00 0.00 0.00 43 1017.5
20260507020021 39 315 0.0 0.0 0.00 0.00 0.00 43 1017.4
20260507012121 41 341 0.0 0.0 0.00 0.00 0.00 42 1017.3
20260507010121 41 335 0.0 0.0 0.00 0.00 0.00 42 1017.2
20260507005219 41 323 0.0 0.0 0.00 0.00 0.00 42 1017.1
20260507004318 41 336 0.0 0.0 0.00 0.00 0.00 42 1017.0
20260507003321 41 329 0.0 0.0 0.00 0.00 0.00 42 1017.0
20260507002320 42 333 0.0 0.0 0.00 0.00 0.00 42 1017.1
20260507001320 42 333 0.0 0.0 0.00 0.00 0.00 42 1017.1
20260507000321 42 336 0.0 0.0 0.00 0.00 0.00 42 1017.1
20260506234320 42 326 0.0 0.0 0.00 0.00 0.00 42 1017.3
20260506233320 43 337 0.0 0.0 0.00 0.00 0.00 41 1017.1
20260506232337 43 316 0.0 0.0 0.00 0.00 0.00 40 1017.1
20260506225320 44 321 0.0 0.0 0.00 0.00 0.00 41 1017.1
20260506224319 44 346 0.0 0.0 0.00 0.00 0.00 41 1017.1
20260506223322 45 339 0.0 0.0 0.00 0.00 0.00 41 1017.0
20260506222420 45 5 0.0 0.0 0.00 0.00 0.00 41 1017.1
20260506221436 45 337 0.0 0.0 0.00 0.00 0.00 41 1017.0
20260506220419 46 342 0.0 0.0 0.00 0.00 0.00 41 1016.9